This is the latest recevied weather packets stored in our database for station/object AC8JV. If no packets are shown the sender has not sent any weather packets the latest 10 day(s).
| Time | Temp. | Humidity | Pressure | Rain* | Wind** | Luminosity | Snow |
|---|---|---|---|---|---|---|---|
| 1777782014 | 3.89° C | 63% | 1016.3 hPa | 0 mm | - | - | - |
| 1777781408 | 3.89° C | 63% | 1016.4 hPa | 0 mm | - | - | - |
| 1777780813 | 3.89° C | 63% | 1016.5 hPa | 0 mm | - | - | - |
| 1777780216 | 3.89° C | 63% | 1016.6 hPa | 0 mm | - | - | - |
| 1777779604 | 3.89° C | 62% | 1016.7 hPa | 0 mm | - | - | - |
| 1777779002 | 4.44° C | 61% | 1016.8 hPa | 0 mm | - | - | - |
| 1777778403 | 4.44° C | 60% | 1016.9 hPa | 0 mm | - | - | - |
| 1777777819 | 4.44° C | 60% | 1016.9 hPa | 0 mm | - | - | - |
| 1777777202 | 4.44° C | 59% | 1017 hPa | 0 mm | - | - | - |
| 1777776624 | 4.44° C | 58% | 1017.1 hPa | 0 mm | - | - | - |
| 1777776010 | 4.44° C | 57% | 1017.1 hPa | 0 mm | - | - | - |
| 1777775411 | 5° C | 57% | 1017.2 hPa | 0 mm | - | - | - |
| 1777774807 | 5° C | 56% | 1017.1 hPa | 0 mm | - | - | - |
| 1777774276 | 5.56° C | 56% | 1017.3 hPa | 0 mm | - | - | - |
| 1777773608 | 5.56° C | 58% | 1017.2 hPa | 0 mm | - | - | - |
| 1777773001 | 5.56° C | 51% | 1017.2 hPa | 0 mm | - | - | - |
| 1777772403 | 5.56° C | 50% | 1017.2 hPa | 0 mm | - | - | - |
| 1777771835 | 6.11° C | 50% | 1017.1 hPa | 0 mm | - | - | - |
| 1777771228 | 6.11° C | 49% | 1017.2 hPa | 0 mm | - | - | - |
| 1777770611 | 6.11° C | 46% | 1017.2 hPa | 0 mm | - | - | - |
| 1777770071 | 6.67° C | 46% | 1017.2 hPa | 0 mm | - | - | - |
| 1777769421 | 6.67° C | 47% | 1017.2 hPa | 0 mm | - | - | - |
| 1777768820 | 7.22° C | 46% | 1017.3 hPa | 0 mm | - | - | - |
| 1777768214 | 7.22° C | 46% | 1017.1 hPa | 0 mm | - | - | - |
| 1777767607 | 7.78° C | 45% | 1017.2 hPa | 0 mm | - | - | - |
* Rain latest hour (hover to see other rain measurements)
** Current wind speed in m/s (hover to see current wind gust speed)